TimeCDT,TemperatureF,Dew PointF,Humidity,Sea Level PressureIn,VisibilityMPH,Wind Direction,Wind SpeedMPH,Gust SpeedMPH,PrecipitationIn,Events,Conditions,WindDirDegrees,DateUTC
12:53 AM,73.9,70.0,87,29.75,10.0,Calm,Calm,-,N/A,,Partly Cloudy,0,2013-06-30 05:53:00
1:53 AM,73.9,71.1,91,29.74,10.0,Calm,Calm,-,N/A,,Overcast,0,2013-06-30 06:53:00
2:53 AM,75.0,71.1,87,29.71,10.0,Calm,Calm,-,N/A,,Overcast,0,2013-06-30 07:53:00
3:53 AM,73.9,71.1,91,29.72,8.0,Calm,Calm,-,N/A,,Partly Cloudy,0,2013-06-30 08:53:00
4:53 AM,72.0,69.1,91,29.72,6.0,Calm,Calm,-,N/A,,Clear,0,2013-06-30 09:53:00
5:53 AM,71.1,68.0,90,29.73,3.0,Calm,Calm,-,N/A,,Clear,0,2013-06-30 10:53:00
6:01 AM,71.6,69.8,94,29.75,2.0,Calm,Calm,-,N/A,,Partly Cloudy,0,2013-06-30 11:01:00
6:03 AM,71.6,69.8,94,29.75,1.0,Calm,Calm,-,N/A,,Mist,0,2013-06-30 11:03:00
6:10 AM,71.6,69.8,94,29.76,0.8,Calm,Calm,-,N/A,,Mist,0,2013-06-30 11:10:00
6:13 AM,71.6,69.8,94,29.76,1.5,Calm,Calm,-,N/A,,Scattered Clouds,0,2013-06-30 11:13:00
6:18 AM,71.6,69.8,94,29.76,3.0,Calm,Calm,-,N/A,,Scattered Clouds,0,2013-06-30 11:18:00
6:53 AM,73.9,71.1,91,29.75,7.0,Calm,Calm,-,N/A,,Mostly Cloudy,0,2013-06-30 11:53:00
7:53 AM,79.0,72.0,79,29.75,10.0,Calm,Calm,-,N/A,,Mostly Cloudy,0,2013-06-30 12:53:00
8:02 AM,80.6,71.6,74,29.76,10.0,Calm,Calm,-,N/A,Thunderstorm,Mostly Cloudy,0,2013-06-30 13:02:00
8:53 AM,78.1,72.0,81,29.77,10.0,ESE,3.5,-,N/A,Thunderstorm,Overcast,110,2013-06-30 13:53:00
9:06 AM,78.8,71.6,78,29.77,10.0,Calm,Calm,-,N/A,,Overcast,0,2013-06-30 14:06:00
9:53 AM,81.0,73.0,77,29.76,10.0,Calm,Calm,-,N/A,,Mostly Cloudy,0,2013-06-30 14:53:00
10:53 AM,81.0,73.0,77,29.76,10.0,Calm,Calm,-,0.00,Rain,Light Rain,0,2013-06-30 15:53:00
11:53 AM,81.0,72.0,74,29.76,10.0,East,8.1,-,0.00,,Mostly Cloudy,90,2013-06-30 16:53:00
12:53 PM,82.0,72.0,71,29.74,10.0,East,4.6,-,N/A,,Clear,100,2013-06-30 17:53:00
1:53 PM,84.9,71.1,63,29.73,10.0,Calm,Calm,-,N/A,,Clear,0,2013-06-30 18:53:00
2:53 PM,86.0,70.0,59,29.72,10.0,Calm,Calm,-,N/A,,Mostly Cloudy,0,2013-06-30 19:53:00
3:53 PM,84.9,71.1,63,29.73,10.0,South,4.6,-,N/A,,Overcast,190,2013-06-30 20:53:00
4:53 PM,87.1,70.0,57,29.71,10.0,Calm,Calm,-,N/A,,Mostly Cloudy,0,2013-06-30 21:53:00
5:53 PM,84.9,73.0,67,29.71,10.0,ESE,3.5,-,N/A,,Partly Cloudy,110,2013-06-30 22:53:00
6:37 PM,82.4,73.4,74,29.74,8.0,South,4.6,-,0.01,Rain-Thunderstorm,Light Thunderstorms and Rain,170,2013-06-30 23:37:00
6:53 PM,80.1,77.0,90,29.75,2.0,South,9.2,-,0.06,Rain-Thunderstorm,Heavy Thunderstorms and Rain,180,2013-06-30 23:53:00
7:08 PM,75.2,71.6,89,29.75,5.0,SSE,4.6,-,0.02,Rain-Thunderstorm,Light Thunderstorms and Rain,160,2013-07-01 00:08:00
7:40 PM,75.2,71.6,89,29.76,10.0,SSE,3.5,-,0.02,,Mostly Cloudy,160,2013-07-01 00:40:00
7:53 PM,75.9,71.1,85,29.75,10.0,SW,3.5,-,0.02,,Partly Cloudy,230,2013-07-01 00:53:00
8:53 PM,73.9,71.1,91,29.77,10.0,Calm,Calm,-,N/A,,Partly Cloudy,0,2013-07-01 01:53:00
9:53 PM,73.0,70.0,90,29.79,7.0,Calm,Calm,-,N/A,,Clear,0,2013-07-01 02:53:00
10:53 PM,72.0,69.1,91,29.79,4.0,Calm,Calm,-,N/A,,Clear,0,2013-07-01 03:53:00
11:53 PM,70.0,68.0,93,29.79,4.0,Calm,Calm,-,N/A,,Clear,0,2013-07-01 04:53:00